Time,TemperatureF,DewpointF,PressureIn,WindDirection,WindDirectionDegrees,WindSpeedMPH,WindSpeedGustMPH,Humidity,HourlyPrecipIn,Conditions,Clouds,dailyrainin,SoftwareType,DateUTC
2013-03-31 00:00:00,44.4,37.6,29.91,SSW,194,0.0,10.0,77,0.00,,,0.00,Wunderground v.1.15,2013-03-31 04:00:00,
2013-03-31 00:05:00,44.3,37.9,29.91,SSW,194,0.0,10.0,78,0.00,,,0.00,Wunderground v.1.15,2013-03-31 04:05:00,
2013-03-31 00:10:00,44.3,37.9,29.90,SSW,194,0.0,10.0,78,0.00,,,0.00,Wunderground v.1.15,2013-03-31 04:10:00,
2013-03-31 00:15:00,44.2,38.1,29.90,SSW,194,0.0,10.0,79,0.00,,,0.00,Wunderground v.1.15,2013-03-31 04:15:00,
2013-03-31 00:20:00,44.1,38.0,29.89,SSW,195,0.0,10.0,79,0.00,,,0.00,Wunderground v.1.15,2013-03-31 04:20:00,
2013-03-31 00:25:00,44.0,37.9,29.89,SSW,195,0.0,10.0,79,0.00,,,0.00,Wunderground v.1.15,2013-03-31 04:25:00,
2013-03-31 00:30:00,44.0,38.2,29.89,SSW,194,0.0,10.0,80,0.00,,,0.00,Wunderground v.1.15,2013-03-31 04:30:00,
2013-03-31 00:35:00,43.9,37.8,29.89,SSW,194,0.0,10.0,79,0.00,,,0.00,Wunderground v.1.15,2013-03-31 04:35:00,
2013-03-31 00:45:00,43.8,38.0,29.88,SSW,194,0.0,10.0,80,0.00,,,0.00,Wunderground v.1.15,2013-03-31 04:45:00,
2013-03-31 00:50:00,43.9,38.1,29.87,SSW,194,0.0,10.0,80,0.00,,,0.00,Wunderground v.1.15,2013-03-31 04:50:00,
2013-03-31 00:55:00,43.8,38.0,29.87,SSW,195,0.0,10.0,80,0.00,,,0.00,Wunderground v.1.15,2013-03-31 04:55:00,
2013-03-31 01:05:00,43.7,37.9,29.87,SSW,194,0.0,10.0,80,0.00,,,0.00,Wunderground v.1.15,2013-03-31 05:05:00,
2013-03-31 01:10:00,43.7,37.9,29.87,SSW,195,0.0,10.0,80,0.00,,,0.00,Wunderground v.1.15,2013-03-31 05:10:00,
2013-03-31 01:15:00,43.7,37.9,29.87,SSW,194,0.0,10.0,80,0.00,,,0.00,Wunderground v.1.15,2013-03-31 05:15:00,
2013-03-31 01:20:00,43.7,37.9,29.87,SSW,194,0.0,10.0,80,0.00,,,0.00,Wunderground v.1.15,2013-03-31 05:20:00,
2013-03-31 01:25:00,43.7,37.9,29.87,SSW,194,0.0,10.0,80,0.00,,,0.00,Wunderground v.1.15,2013-03-31 05:25:00,
2013-03-31 01:30:00,43.8,38.3,29.87,SSW,194,0.0,10.0,81,0.00,,,0.00,Wunderground v.1.15,2013-03-31 05:30:00,
2013-03-31 01:35:00,43.9,38.8,29.87,SSW,195,0.0,10.0,82,0.00,,,0.00,Wunderground v.1.15,2013-03-31 05:35:00,
2013-03-31 01:40:00,43.9,38.8,29.87,SSW,195,0.0,10.0,82,0.00,,,0.00,Wunderground v.1.15,2013-03-31 05:40:00,
2013-03-31 01:45:00,44.1,39.0,29.87,SSW,194,0.0,10.0,82,0.00,,,0.00,Wunderground v.1.15,2013-03-31 05:45:00,
2013-03-31 01:50:00,44.4,38.9,29.87,SSW,194,0.0,10.0,81,0.00,,,0.00,Wunderground v.1.15,2013-03-31 05:50:00,
2013-03-31 01:55:00,44.7,38.9,29.86,SSW,194,0.0,10.0,80,0.00,,,0.00,Wunderground v.1.15,2013-03-31 05:55:00,
2013-03-31 02:00:00,44.8,39.0,29.86,SSW,194,0.0,10.0,80,0.00,,,0.00,Wunderground v.1.15,2013-03-31 06:00:00,
2013-03-31 02:05:00,45.2,39.4,29.86,SW,217,1.0,10.0,80,0.00,,,0.00,Wunderground v.1.15,2013-03-31 06:05:00,
2013-03-31 02:15:00,45.7,39.6,29.86,South,190,1.0,10.0,79,0.00,,,0.00,Wunderground v.1.15,2013-03-31 06:15:00,
2013-03-31 02:20:00,46.1,39.6,29.86,SSW,200,2.0,2.0,78,0.00,,,0.00,Wunderground v.1.15,2013-03-31 06:20:00,
2013-03-31 02:30:00,46.7,39.9,29.85,SSW,207,2.0,2.0,77,0.00,,,0.00,Wunderground v.1.15,2013-03-31 06:30:00,
2013-03-31 02:35:00,46.8,40.0,29.85,SSW,202,1.0,10.0,77,0.00,,,0.00,Wunderground v.1.15,2013-03-31 06:35:00,
2013-03-31 02:40:00,46.8,40.0,29.85,SSW,199,1.0,10.0,77,0.00,,,0.00,Wunderground v.1.15,2013-03-31 06:40:00,
2013-03-31 02:45:00,46.8,40.3,29.85,SSW,199,1.0,10.0,78,0.00,,,0.00,Wunderground v.1.15,2013-03-31 06:45:00,
2013-03-31 02:50:00,46.9,40.4,29.84,SSW,199,1.0,1.0,78,0.00,,,0.00,Wunderground v.1.15,2013-03-31 06:50:00,
2013-03-31 03:00:00,46.9,40.4,29.84,SSW,192,1.0,1.0,78,0.00,,,0.00,Wunderground v.1.15,2013-03-31 07:00:00,
2013-03-31 03:05:00,47.0,40.8,29.84,SSW,198,1.0,10.0,79,0.00,,,0.00,Wunderground v.1.15,2013-03-31 07:05:00,
2013-03-31 03:10:00,47.2,41.3,29.84,WSW,240,1.0,10.0,80,0.00,,,0.00,Wunderground v.1.15,2013-03-31 07:10:00,
2013-03-31 03:20:00,47.6,42.1,29.84,SW,215,2.0,2.0,81,0.00,,,0.00,Wunderground v.1.15,2013-03-31 07:20:00,
2013-03-31 03:25:00,47.7,42.2,29.83,WSW,244,2.0,10.0,81,0.00,,,0.00,Wunderground v.1.15,2013-03-31 07:25:00,
2013-03-31 03:35:00,47.7,42.2,29.83,WSW,238,1.0,10.0,81,0.00,,,0.00,Wunderground v.1.15,2013-03-31 07:35:00,
2013-03-31 03:40:00,47.6,42.4,29.83,WSW,244,2.0,10.0,82,0.00,,,0.00,Wunderground v.1.15,2013-03-31 07:40:00,
2013-03-31 03:45:00,47.4,42.2,29.83,West,261,2.0,10.0,82,0.00,,,0.00,Wunderground v.1.15,2013-03-31 07:45:00,
2013-03-31 03:50:00,47.2,42.3,29.83,WSW,241,2.0,2.0,83,0.00,,,0.00,Wunderground v.1.15,2013-03-31 07:50:00,
2013-03-31 03:55:00,47.1,42.5,29.82,WSW,244,2.0,10.0,84,0.00,,,0.00,Wunderground v.1.15,2013-03-31 07:55:00,
2013-03-31 04:00:00,46.9,42.3,29.82,WSW,256,2.0,10.0,84,0.00,,,0.00,Wunderground v.1.15,2013-03-31 08:00:00,
2013-03-31 04:10:00,46.4,42.1,29.82,WSW,238,2.0,2.0,85,0.00,,,0.00,Wunderground v.1.15,2013-03-31 08:10:00,
2013-03-31 04:15:00,46.2,42.2,29.82,SW,227,1.0,10.0,86,0.00,,,0.00,Wunderground v.1.15,2013-03-31 08:15:00,
2013-03-31 04:20:00,46.1,42.1,29.82,SW,226,1.0,10.0,86,0.00,,,0.00,Wunderground v.1.15,2013-03-31 08:20:00,
2013-03-31 04:30:00,46.0,42.3,29.81,WSW,258,2.0,2.0,87,0.00,,,0.00,Wunderground v.1.15,2013-03-31 08:30:00,
2013-03-31 04:35:00,45.9,42.5,29.81,WSW,238,2.0,10.0,88,0.00,,,0.00,Wunderground v.1.15,2013-03-31 08:35:00,
2013-03-31 04:40:00,45.9,42.5,29.81,SW,217,2.0,10.0,88,0.00,,,0.00,Wunderground v.1.15,2013-03-31 08:40:00,
2013-03-31 04:50:00,45.9,42.5,29.81,West,279,2.0,10.0,88,0.00,,,0.00,Wunderground v.1.15,2013-03-31 08:50:00,
2013-03-31 04:55:00,45.9,42.8,29.81,SSE,161,2.0,10.0,89,0.00,,,0.00,Wunderground v.1.15,2013-03-31 08:55:00,
2013-03-31 05:00:00,45.9,42.8,29.81,WSW,256,3.0,10.0,89,0.00,,,0.00,Wunderground v.1.15,2013-03-31 09:00:00,
2013-03-31 05:05:00,45.8,42.7,29.81,SW,232,2.0,10.0,89,0.00,,,0.00,Wunderground v.1.15,2013-03-31 09:05:00,
2013-03-31 05:15:00,45.7,42.6,29.80,SW,230,2.0,10.0,89,0.00,,,0.00,Wunderground v.1.15,2013-03-31 09:15:00,
2013-03-31 05:20:00,45.7,42.6,29.80,SSW,198,1.0,10.0,89,0.00,,,0.00,Wunderground v.1.15,2013-03-31 09:20:00,
2013-03-31 05:25:00,45.7,42.6,29.80,SSW,202,1.0,10.0,89,0.00,,,0.00,Wunderground v.1.15,2013-03-31 09:25:00,
2013-03-31 05:35:00,45.6,42.5,29.80,SW,221,1.0,10.0,89,0.00,,,0.00,Wunderground v.1.15,2013-03-31 09:35:00,
2013-03-31 05:40:00,45.6,42.8,29.80,SW,227,1.0,10.0,90,0.00,,,0.00,Wunderground v.1.15,2013-03-31 09:40:00,
2013-03-31 05:50:00,45.5,42.7,29.80,SW,229,2.0,2.0,90,0.00,,,0.00,Wunderground v.1.15,2013-03-31 09:50:00,
2013-03-31 05:55:00,45.5,42.7,29.81,WSW,246,1.0,10.0,90,0.00,,,0.00,Wunderground v.1.15,2013-03-31 09:55:00,
2013-03-31 06:00:00,45.5,42.7,29.80,WSW,246,1.0,1.0,90,0.00,,,0.00,Wunderground v.1.15,2013-03-31 10:00:00,
2013-03-31 06:10:00,45.4,42.6,29.80,WSW,246,0.0,0.0,90,0.00,,,0.00,Wunderground v.1.15,2013-03-31 10:10:00,
2013-03-31 06:15:00,45.5,43.0,29.80,SSW,211,1.0,3.0,91,0.00,,,0.00,Wunderground v.1.15,2013-03-31 10:15:00,
2013-03-31 06:20:00,45.5,43.3,29.80,SSW,212,1.0,2.0,92,0.00,,,0.00,Wunderground v.1.15,2013-03-31 10:20:00,
2013-03-31 06:25:00,45.4,43.2,29.80,SSW,211,1.0,2.0,92,0.00,,,0.00,Wunderground v.1.15,2013-03-31 10:25:00,
2013-03-31 06:30:00,45.3,43.1,29.80,WSW,251,2.0,8.0,92,0.00,,,0.00,Wunderground v.1.15,2013-03-31 10:30:00,
2013-03-31 06:40:00,45.0,43.4,29.80,WNW,292,3.0,3.0,94,0.00,,,0.00,Wunderground v.1.15,2013-03-31 10:40:00,
2013-03-31 06:45:00,44.8,43.2,29.80,SW,229,2.0,3.0,94,0.00,,,0.00,Wunderground v.1.15,2013-03-31 10:45:00,
2013-03-31 06:50:00,44.7,43.4,29.80,WSW,245,2.0,2.0,95,0.00,,,0.00,Wunderground v.1.15,2013-03-31 10:50:00,
2013-03-31 07:00:00,44.6,43.3,29.80,SW,233,2.0,2.0,95,0.00,,,0.00,Wunderground v.1.15,2013-03-31 11:00:00,
2013-03-31 07:05:00,44.5,43.4,29.80,West,261,2.0,4.0,96,0.00,,,0.00,Wunderground v.1.15,2013-03-31 11:05:00,
2013-03-31 07:10:00,44.4,43.3,29.81,WNW,300,2.0,2.0,96,0.00,,,0.00,Wunderground v.1.15,2013-03-31 11:10:00,
2013-03-31 07:15:00,44.4,43.3,29.80,WSW,253,2.0,4.0,96,0.00,,,0.00,Wunderground v.1.15,2013-03-31 11:15:00,
2013-03-31 07:20:00,44.3,43.2,29.80,SW,227,2.0,5.0,96,0.00,,,0.00,Wunderground v.1.15,2013-03-31 11:20:00,
2013-03-31 07:30:00,44.3,43.2,29.80,West,269,3.0,3.0,96,0.00,,,0.00,Wunderground v.1.15,2013-03-31 11:30:00,
2013-03-31 07:40:00,44.3,43.5,29.80,West,277,1.0,4.0,97,0.00,,,0.00,Wunderground v.1.15,2013-03-31 11:40:00,
2013-03-31 07:45:00,44.4,43.6,29.80,SW,223,1.0,4.0,97,0.00,,,0.00,Wunderground v.1.15,2013-03-31 11:45:00,
2013-03-31 07:50:00,44.4,43.6,29.80,WNW,302,1.0,4.0,97,0.00,,,0.00,Wunderground v.1.15,2013-03-31 11:50:00,
2013-03-31 07:55:00,44.5,43.7,29.80,NW,305,1.0,4.0,97,0.00,,,0.00,Wunderground v.1.15,2013-03-31 11:55:00,
2013-03-31 08:05:00,44.7,43.9,29.80,WSW,244,3.0,4.0,97,0.00,,,0.00,Wunderground v.1.15,2013-03-31 12:05:00,
2013-03-31 08:10:00,44.8,44.0,29.80,WSW,244,3.0,4.0,97,0.00,,,0.00,Wunderground v.1.15,2013-03-31 12:10:00,
2013-03-31 08:15:00,44.9,44.1,29.80,West,275,3.0,4.0,97,0.00,,,0.00,Wunderground v.1.15,2013-03-31 12:15:00,
2013-03-31 08:20:00,44.9,44.1,29.80,WSW,254,3.0,3.0,97,0.00,,,0.00,Wunderground v.1.15,2013-03-31 12:20:00,
2013-03-31 08:25:00,45.0,44.2,29.80,SW,234,2.0,4.0,97,0.00,,,0.00,Wunderground v.1.15,2013-03-31 12:25:00,
2013-03-31 08:35:00,45.2,44.4,29.80,WNW,289,3.0,4.0,97,0.00,,,0.00,Wunderground v.1.15,2013-03-31 12:35:00,
2013-03-31 08:45:00,45.4,44.3,29.80,WSW,248,3.0,4.0,96,0.00,,,0.00,Wunderground v.1.15,2013-03-31 12:45:00,
2013-03-31 08:50:00,45.5,44.4,29.80,WSW,247,3.0,3.0,96,0.00,,,0.00,Wunderground v.1.15,2013-03-31 12:50:00,
2013-03-31 08:55:00,45.6,44.5,29.80,West,273,3.0,5.0,96,0.00,,,0.00,Wunderground v.1.15,2013-03-31 12:55:00,
2013-03-31 09:00:00,45.6,44.3,29.80,WSW,253,3.0,3.0,95,0.00,,,0.00,Wunderground v.1.15,2013-03-31 13:00:00,
2013-03-31 09:05:00,45.7,44.4,29.80,WNW,285,4.0,4.0,95,0.00,,,0.00,Wunderground v.1.15,2013-03-31 13:05:00,
2013-03-31 09:10:00,45.8,44.4,29.80,West,270,4.0,4.0,95,0.00,,,0.00,Wunderground v.1.15,2013-03-31 13:10:00,
2013-03-31 09:15:00,45.9,44.5,29.81,WSW,244,3.0,5.0,95,0.00,,,0.00,Wunderground v.1.15,2013-03-31 13:15:00,
2013-03-31 09:20:00,46.0,44.4,29.80,WSW,255,3.0,4.0,94,0.00,,,0.00,Wunderground v.1.15,2013-03-31 13:20:00,
2013-03-31 09:25:00,46.1,44.5,29.81,West,267,3.0,4.0,94,0.00,,,0.00,Wunderground v.1.15,2013-03-31 13:25:00,
2013-03-31 09:35:00,46.2,44.3,29.81,WNW,303,4.0,10.0,93,0.00,,,0.00,Wunderground v.1.15,2013-03-31 13:35:00,
2013-03-31 09:40:00,46.3,44.4,29.81,West,265,4.0,5.0,93,0.00,,,0.00,Wunderground v.1.15,2013-03-31 13:40:00,
2013-03-31 09:45:00,46.4,44.5,29.81,WSW,254,4.0,5.0,93,0.00,,,0.00,Wunderground v.1.15,2013-03-31 13:45:00,
2013-03-31 09:50:00,46.5,44.6,29.81,SW,233,4.0,5.0,93,0.00,,,0.00,Wunderground v.1.15,2013-03-31 13:50:00,
2013-03-31 09:55:00,46.5,44.6,29.80,West,273,4.0,5.0,93,0.00,,,0.00,Wunderground v.1.15,2013-03-31 13:55:00,
2013-03-31 10:00:00,46.7,44.8,29.81,SW,215,4.0,4.0,93,0.00,,,0.00,Wunderground v.1.15,2013-03-31 14:00:00,
2013-03-31 10:05:00,46.8,44.6,29.81,West,264,4.0,4.0,92,0.00,,,0.00,Wunderground v.1.15,2013-03-31 14:05:00,
2013-03-31 10:10:00,46.9,44.7,29.81,WNW,296,5.0,5.0,92,0.00,,,0.00,Wunderground v.1.15,2013-03-31 14:10:00,
2013-03-31 10:20:00,47.1,44.9,29.81,WSW,244,4.0,5.0,92,0.00,,,0.00,Wunderground v.1.15,2013-03-31 14:20:00,
2013-03-31 10:25:00,47.2,44.7,29.81,West,281,4.0,5.0,91,0.00,,,0.00,Wunderground v.1.15,2013-03-31 14:25:00,
2013-03-31 10:35:00,47.4,44.6,29.81,West,271,5.0,5.0,90,0.00,,,0.00,Wunderground v.1.15,2013-03-31 14:35:00,
2013-03-31 10:40:00,47.6,44.5,29.81,NW,311,5.0,8.0,89,0.00,,,0.00,Wunderground v.1.15,2013-03-31 14:40:00,
2013-03-31 10:45:00,47.8,44.4,29.81,WSW,249,5.0,8.0,88,0.00,,,0.00,Wunderground v.1.15,2013-03-31 14:45:00,
2013-03-31 10:50:00,48.0,44.6,29.81,WSW,245,5.0,8.0,88,0.00,,,0.00,Wunderground v.1.15,2013-03-31 14:50:00,
2013-03-31 10:55:00,48.0,44.0,29.81,WNW,291,6.0,8.0,86,0.00,,,0.00,Wunderground v.1.15,2013-03-31 14:55:00,
2013-03-31 11:00:00,48.3,44.3,29.81,West,270,6.0,6.0,86,0.00,,,0.00,Wunderground v.1.15,2013-03-31 15:00:00,
2013-03-31 11:05:00,48.8,43.9,29.80,WNW,295,5.0,6.0,83,0.00,,,0.00,Wunderground v.1.15,2013-03-31 15:05:00,
2013-03-31 11:10:00,49.8,44.8,29.81,NW,307,6.0,11.0,83,0.00,,,0.00,Wunderground v.1.15,2013-03-31 15:10:00,
2013-03-31 11:15:00,49.9,44.0,29.81,NW,310,7.0,11.0,80,0.00,,,0.00,Wunderground v.1.15,2013-03-31 15:15:00,
2013-03-31 11:20:00,49.9,43.6,29.80,NW,317,7.0,7.0,79,0.00,,,0.00,Wunderground v.1.15,2013-03-31 15:20:00,
2013-03-31 11:30:00,50.6,43.7,29.80,WNW,294,7.0,7.0,77,0.00,,,0.00,Wunderground v.1.15,2013-03-31 15:30:00,
2013-03-31 11:35:00,51.1,44.5,29.80,WNW,285,7.0,7.0,78,0.00,,,0.00,Wunderground v.1.15,2013-03-31 15:35:00,
2013-03-31 11:45:00,51.4,43.7,29.81,West,280,7.0,10.0,75,0.00,,,0.00,Wunderground v.1.15,2013-03-31 15:45:00,
2013-03-31 11:50:00,51.6,44.3,29.81,WNW,297,8.0,9.0,76,0.00,,,0.00,Wunderground v.1.15,2013-03-31 15:50:00,
2013-03-31 11:55:00,52.1,44.4,29.80,SW,236,7.0,9.0,75,0.00,,,0.00,Wunderground v.1.15,2013-03-31 15:55:00,
2013-03-31 12:00:00,52.1,44.1,29.81,West,277,8.0,8.0,74,0.00,,,0.00,Wunderground v.1.15,2013-03-31 16:00:00,
2013-03-31 12:05:00,52.5,44.1,29.80,NW,322,8.0,8.0,73,0.00,,,0.00,Wunderground v.1.15,2013-03-31 16:05:00,
2013-03-31 12:10:00,53.0,43.8,29.80,West,281,7.0,8.0,71,0.00,,,0.00,Wunderground v.1.15,2013-03-31 16:10:00,
2013-03-31 12:15:00,53.4,43.9,29.80,WNW,295,7.0,11.0,70,0.00,,,0.00,Wunderground v.1.15,2013-03-31 16:15:00,
2013-03-31 12:20:00,53.9,44.0,29.80,West,281,8.0,8.0,69,0.00,,,0.00,Wunderground v.1.15,2013-03-31 16:20:00,
2013-03-31 12:25:00,54.2,44.6,29.80,WNW,286,7.0,8.0,70,0.00,,,0.00,Wunderground v.1.15,2013-03-31 16:25:00,
2013-03-31 12:35:00,54.5,43.8,29.80,NNW,329,5.0,5.0,67,0.00,,,0.00,Wunderground v.1.15,2013-03-31 16:35:00,
2013-03-31 12:45:00,55.0,43.4,29.80,NW,310,6.0,6.0,65,0.00,,,0.00,Wunderground v.1.15,2013-03-31 16:45:00,
2013-03-31 12:50:00,55.2,44.0,29.79,WNW,298,6.0,8.0,66,0.00,,,0.00,Wunderground v.1.15,2013-03-31 16:50:00,
2013-03-31 12:55:00,54.8,41.6,29.79,West,281,7.0,8.0,61,0.00,,,0.00,Wunderground v.1.15,2013-03-31 16:55:00,
2013-03-31 13:00:00,54.9,42.1,29.79,West,277,7.0,7.0,62,0.00,,,0.00,Wunderground v.1.15,2013-03-31 17:00:00,
2013-03-31 13:10:00,55.8,42.5,29.79,NW,319,6.0,6.0,61,0.00,,,0.00,Wunderground v.1.15,2013-03-31 17:10:00,
2013-03-31 13:15:00,56.3,42.6,29.79,West,281,6.0,6.0,60,0.00,,,0.00,Wunderground v.1.15,2013-03-31 17:15:00,
2013-03-31 13:20:00,56.5,41.4,29.79,WNW,296,6.0,8.0,57,0.00,,,0.00,Wunderground v.1.15,2013-03-31 17:20:00,
2013-03-31 13:25:00,56.3,42.1,29.78,West,277,7.0,8.0,59,0.00,,,0.00,Wunderground v.1.15,2013-03-31 17:25:00,
2013-03-31 13:30:00,56.9,42.7,29.78,West,273,7.0,8.0,59,0.00,,,0.00,Wunderground v.1.15,2013-03-31 17:30:00,
2013-03-31 13:40:00,57.1,42.5,29.78,WSW,242,7.0,9.0,58,0.00,,,0.00,Wunderground v.1.15,2013-03-31 17:40:00,
2013-03-31 13:45:00,57.0,43.7,29.77,WNW,288,8.0,9.0,61,0.00,,,0.00,Wunderground v.1.15,2013-03-31 17:45:00,
2013-03-31 13:50:00,56.9,43.6,29.77,WNW,289,9.0,13.0,61,0.00,,,0.00,Wunderground v.1.15,2013-03-31 17:50:00,
2013-03-31 13:55:00,56.8,43.9,29.77,WSW,247,8.0,13.0,62,0.00,,,0.00,Wunderground v.1.15,2013-03-31 17:55:00,
2013-03-31 14:00:00,57.2,44.7,29.77,NW,323,8.0,8.0,63,0.00,,,0.00,Wunderground v.1.15,2013-03-31 18:00:00,
2013-03-31 14:10:00,57.6,44.7,29.76,SW,215,7.0,14.0,62,0.00,,,0.00,Wunderground v.1.15,2013-03-31 18:10:00,
2013-03-31 14:20:00,57.1,44.6,29.76,WNW,292,8.0,13.0,63,0.00,,,0.00,Wunderground v.1.15,2013-03-31 18:20:00,
2013-03-31 14:25:00,57.9,44.1,29.76,WSW,255,7.0,13.0,60,0.00,,,0.00,Wunderground v.1.15,2013-03-31 18:25:00,
2013-03-31 14:30:00,58.0,44.2,29.76,SW,229,7.0,8.0,60,0.00,,,0.00,Wunderground v.1.15,2013-03-31 18:30:00,
2013-03-31 14:35:00,58.3,44.5,29.76,NW,310,7.0,8.0,60,0.00,,,0.00,Wunderground v.1.15,2013-03-31 18:35:00,
2013-03-31 14:40:00,58.2,42.6,29.76,WSW,244,8.0,8.0,56,0.00,,,0.00,Wunderground v.1.15,2013-03-31 18:40:00,
2013-03-31 14:45:00,58.4,43.7,29.75,WSW,237,7.0,10.0,58,0.00,,,0.00,Wunderground v.1.15,2013-03-31 18:45:00,
2013-03-31 14:55:00,59.1,43.9,29.75,NW,310,8.0,10.0,57,0.00,,,0.00,Wunderground v.1.15,2013-03-31 18:55:00,
2013-03-31 15:00:00,58.4,44.1,29.75,WSW,252,8.0,8.0,59,0.00,,,0.00,Wunderground v.1.15,2013-03-31 19:00:00,
2013-03-31 15:10:00,59.8,43.6,29.75,NW,311,8.0,9.0,55,0.00,,,0.00,Wunderground v.1.15,2013-03-31 19:10:00,
2013-03-31 15:15:00,59.0,42.4,29.75,WNW,298,8.0,10.0,54,0.00,,,0.00,Wunderground v.1.15,2013-03-31 19:15:00,
2013-03-31 15:20:00,58.6,42.9,29.75,West,264,8.0,8.0,56,0.00,,,0.00,Wunderground v.1.15,2013-03-31 19:20:00,
2013-03-31 15:25:00,58.3,43.1,29.75,West,259,8.0,8.0,57,0.00,,,0.00,Wunderground v.1.15,2013-03-31 19:25:00,
2013-03-31 15:30:00,58.9,44.6,29.75,WNW,294,6.0,6.0,59,0.00,,,0.00,Wunderground v.1.15,2013-03-31 19:30:00,
2013-03-31 15:35:00,59.9,45.1,29.75,West,277,6.0,6.0,58,0.00,,,0.00,Wunderground v.1.15,2013-03-31 19:35:00,
2013-03-31 15:40:00,60.1,43.4,29.75,WNW,282,7.0,7.0,54,0.00,,,0.00,Wunderground v.1.15,2013-03-31 19:40:00,
2013-03-31 15:45:00,59.9,42.7,29.74,WSW,254,8.0,8.0,53,0.00,,,0.00,Wunderground v.1.15,2013-03-31 19:45:00,
2013-03-31 15:55:00,60.8,44.0,29.74,WSW,247,6.0,8.0,54,0.00,,,0.00,Wunderground v.1.15,2013-03-31 19:55:00,
2013-03-31 16:00:00,61.9,43.6,29.74,WSW,241,6.0,12.0,51,0.00,,,0.00,Wunderground v.1.15,2013-03-31 20:00:00,
2013-03-31 16:05:00,61.1,41.8,29.74,SW,226,8.0,12.0,49,0.00,,,0.00,Wunderground v.1.15,2013-03-31 20:05:00,
2013-03-31 16:10:00,60.6,41.8,29.74,SW,233,8.0,9.0,50,0.00,,,0.00,Wunderground v.1.15,2013-03-31 20:10:00,
2013-03-31 16:15:00,60.4,42.7,29.74,South,171,7.0,9.0,52,0.00,,,0.00,Wunderground v.1.15,2013-03-31 20:15:00,
2013-03-31 16:20:00,60.9,41.6,29.74,SW,233,8.0,8.0,49,0.00,,,0.00,Wunderground v.1.15,2013-03-31 20:20:00,
2013-03-31 16:25:00,60.9,41.1,29.74,WNW,294,8.0,8.0,48,0.00,,,0.00,Wunderground v.1.15,2013-03-31 20:25:00,
2013-03-31 16:35:00,59.9,40.7,29.73,SW,236,7.0,10.0,49,0.00,,,0.00,Wunderground v.1.15,2013-03-31 20:35:00,
2013-03-31 16:40:00,59.7,40.0,29.73,WSW,257,8.0,8.0,48,0.00,,,0.00,Wunderground v.1.15,2013-03-31 20:40:00,
2013-03-31 16:45:00,59.5,41.3,29.73,WSW,255,7.0,8.0,51,0.00,,,0.00,Wunderground v.1.15,2013-03-31 20:45:00,
2013-03-31 16:50:00,59.6,42.4,29.73,WNW,294,5.0,12.0,53,0.00,,,0.00,Wunderground v.1.15,2013-03-31 20:50:00,
2013-03-31 16:55:00,60.4,43.2,29.73,WSW,256,5.0,12.0,53,0.00,,,0.00,Wunderground v.1.15,2013-03-31 20:55:00,
2013-03-31 17:05:00,61.1,41.8,29.73,WSW,251,8.0,8.0,49,0.00,,,0.00,Wunderground v.1.15,2013-03-31 21:05:00,
2013-03-31 17:15:00,61.3,43.0,29.73,WSW,248,8.0,14.0,51,0.00,,,0.00,Wunderground v.1.15,2013-03-31 21:15:00,
2013-03-31 17:20:00,61.1,42.3,29.72,WNW,284,9.0,16.0,50,0.00,,,0.00,Wunderground v.1.15,2013-03-31 21:20:00,
2013-03-31 17:25:00,60.9,41.6,29.72,WSW,253,10.0,16.0,49,0.00,,,0.00,Wunderground v.1.15,2013-03-31 21:25:00,
2013-03-31 17:30:00,60.5,42.3,29.72,WNW,296,9.0,12.0,51,0.00,,,0.00,Wunderground v.1.15,2013-03-31 21:30:00,
2013-03-31 17:35:00,60.3,42.6,29.72,WSW,243,8.0,12.0,52,0.00,,,0.00,Wunderground v.1.15,2013-03-31 21:35:00,
2013-03-31 17:40:00,59.1,42.9,29.74,West,263,10.0,11.0,55,0.00,,,0.00,Wunderground v.1.15,2013-03-31 21:40:00,
2013-03-31 17:45:00,57.2,42.1,29.74,NW,307,12.0,12.0,57,0.00,,,0.00,Wunderground v.1.15,2013-03-31 21:45:00,
2013-03-31 17:50:00,54.4,44.4,29.75,WNW,290,10.0,10.0,69,0.26,,,0.03,Wunderground v.1.15,2013-03-31 21:50:00,
2013-03-31 18:00:00,52.0,45.0,29.74,SW,232,4.0,5.0,77,0.06,,,0.03,Wunderground v.1.15,2013-03-31 22:00:00,
2013-03-31 18:05:00,51.7,45.1,29.74,WSW,241,3.0,5.0,78,0.05,,,0.04,Wunderground v.1.15,2013-03-31 22:05:00,
2013-03-31 18:10:00,51.9,45.3,29.74,WSW,256,3.0,3.0,78,0.05,,,0.04,Wunderground v.1.15,2013-03-31 22:10:00,
2013-03-31 18:20:00,53.7,45.6,29.74,WSW,238,4.0,5.0,74,0.00,,,0.04,Wunderground v.1.15,2013-03-31 22:20:00,
2013-03-31 18:25:00,54.6,46.1,29.74,SW,223,4.0,8.0,73,0.00,,,0.04,Wunderground v.1.15,2013-03-31 22:25:00,
2013-03-31 18:30:00,55.3,44.9,29.74,West,266,4.0,4.0,68,0.00,,,0.04,Wunderground v.1.15,2013-03-31 22:30:00,
2013-03-31 18:35:00,55.6,44.0,29.74,WSW,252,5.0,5.0,65,0.00,,,0.04,Wunderground v.1.15,2013-03-31 22:35:00,
2013-03-31 18:40:00,55.5,44.7,29.74,West,267,4.0,5.0,67,0.00,,,0.04,Wunderground v.1.15,2013-03-31 22:40:00,
2013-03-31 18:45:00,55.7,44.9,29.74,WSW,243,3.0,5.0,67,0.00,,,0.04,Wunderground v.1.15,2013-03-31 22:45:00,
2013-03-31 18:50:00,56.1,44.9,29.74,WSW,250,4.0,4.0,66,0.00,,,0.04,Wunderground v.1.15,2013-03-31 22:50:00,
2013-03-31 19:00:00,56.2,45.0,29.74,West,268,6.0,8.0,66,0.00,,,0.04,Wunderground v.1.15,2013-03-31 23:00:00,
2013-03-31 19:05:00,56.2,43.3,29.75,West,271,6.0,8.0,62,0.00,,,0.04,Wunderground v.1.15,2013-03-31 23:05:00,
2013-03-31 19:10:00,56.2,42.9,29.75,West,274,6.0,6.0,61,0.00,,,0.04,Wunderground v.1.15,2013-03-31 23:10:00,
2013-03-31 19:15:00,56.4,42.2,29.75,WSW,256,6.0,12.0,59,0.00,,,0.04,Wunderground v.1.15,2013-03-31 23:15:00,
2013-03-31 19:25:00,56.4,42.2,29.75,WNW,297,6.0,6.0,59,0.00,,,0.04,Wunderground v.1.15,2013-03-31 23:25:00,
2013-03-31 19:30:00,56.3,41.7,29.75,NW,308,6.0,7.0,58,0.00,,,0.04,Wunderground v.1.15,2013-03-31 23:30:00,
2013-03-31 19:35:00,56.1,41.5,29.75,WNW,295,7.0,10.0,58,0.00,,,0.04,Wunderground v.1.15,2013-03-31 23:35:00,
2013-03-31 19:40:00,55.9,41.3,29.75,SW,221,6.0,6.0,58,0.00,,,0.04,Wunderground v.1.15,2013-03-31 23:40:00,
2013-03-31 19:45:00,55.6,41.5,29.75,West,273,5.0,6.0,59,0.00,,,0.04,Wunderground v.1.15,2013-03-31 23:45:00,
2013-03-31 19:55:00,54.9,42.1,29.76,West,271,6.0,6.0,62,0.00,,,0.04,Wunderground v.1.15,2013-03-31 23:55:00,
2013-03-31 20:00:00,54.6,42.3,29.76,West,279,6.0,9.0,63,0.00,,,0.04,Wunderground v.1.15,2013-04-01 00:00:00,
2013-03-31 20:05:00,54.4,41.6,29.76,WNW,294,6.0,9.0,62,0.00,,,0.04,Wunderground v.1.15,2013-04-01 00:05:00,
2013-03-31 20:10:00,54.2,41.5,29.76,WNW,285,7.0,7.0,62,0.00,,,0.04,Wunderground v.1.15,2013-04-01 00:10:00,
2013-03-31 20:15:00,54.1,41.4,29.76,NW,309,6.0,7.0,62,0.00,,,0.04,Wunderground v.1.15,2013-04-01 00:15:00,
2013-03-31 20:20:00,53.9,41.6,29.76,West,263,5.0,5.0,63,0.00,,,0.04,Wunderground v.1.15,2013-04-01 00:20:00,
2013-03-31 20:30:00,53.3,41.0,29.76,WSW,257,6.0,6.0,63,0.00,,,0.04,Wunderground v.1.15,2013-04-01 00:30:00,
2013-03-31 20:40:00,52.8,41.0,29.77,NW,320,5.0,5.0,64,0.00,,,0.04,Wunderground v.1.15,2013-04-01 00:40:00,
2013-03-31 20:45:00,52.6,40.8,29.77,WNW,283,5.0,5.0,64,0.00,,,0.04,Wunderground v.1.15,2013-04-01 00:45:00,
2013-03-31 20:50:00,52.2,40.4,29.78,WNW,285,5.0,5.0,64,0.00,,,0.04,Wunderground v.1.15,2013-04-01 00:50:00,
2013-03-31 20:55:00,52.0,39.8,29.78,WNW,294,4.0,7.0,63,0.00,,,0.04,Wunderground v.1.15,2013-04-01 00:55:00,
2013-03-31 21:00:00,51.9,39.3,29.78,West,271,6.0,7.0,62,0.00,,,0.04,Wunderground v.1.15,2013-04-01 01:00:00,
2013-03-31 21:05:00,51.8,38.3,29.78,West,270,8.0,10.0,60,0.00,,,0.04,Wunderground v.1.15,2013-04-01 01:05:00,
2013-03-31 21:10:00,51.4,38.0,29.78,NW,306,7.0,7.0,60,0.00,,,0.04,Wunderground v.1.15,2013-04-01 01:10:00,
2013-03-31 21:20:00,50.6,38.1,29.79,NW,308,7.0,10.0,62,0.00,,,0.04,Wunderground v.1.15,2013-04-01 01:20:00,
2013-03-31 21:25:00,50.3,38.2,29.79,NW,325,7.0,10.0,63,0.00,,,0.04,Wunderground v.1.15,2013-04-01 01:25:00,
2013-03-31 21:30:00,49.9,38.2,29.80,WNW,290,7.0,7.0,64,0.00,,,0.04,Wunderground v.1.15,2013-04-01 01:30:00,
2013-03-31 21:35:00,49.5,38.2,29.80,NW,321,7.0,7.0,65,0.00,,,0.04,Wunderground v.1.15,2013-04-01 01:35:00,
2013-03-31 21:40:00,49.2,38.3,29.80,NW,308,6.0,7.0,66,0.00,,,0.04,Wunderground v.1.15,2013-04-01 01:40:00,
2013-03-31 21:45:00,49.0,38.1,29.80,NW,311,6.0,7.0,66,0.00,,,0.04,Wunderground v.1.15,2013-04-01 01:45:00,
2013-03-31 21:50:00,48.7,38.2,29.80,WNW,288,5.0,5.0,67,0.00,,,0.04,Wunderground v.1.15,2013-04-01 01:50:00,
2013-03-31 22:00:00,48.3,38.2,29.80,WNW,292,5.0,5.0,68,0.00,,,0.04,Wunderground v.1.15,2013-04-01 02:00:00,
2013-03-31 22:05:00,48.1,38.0,29.81,NW,309,4.0,5.0,68,0.00,,,0.04,Wunderground v.1.15,2013-04-01 02:05:00,
2013-03-31 22:10:00,47.9,38.2,29.81,WNW,297,4.0,4.0,69,0.00,,,0.04,Wunderground v.1.15,2013-04-01 02:10:00,
2013-03-31 22:15:00,47.7,38.0,29.81,WNW,300,4.0,4.0,69,0.00,,,0.04,Wunderground v.1.15,2013-04-01 02:15:00,
2013-03-31 22:20:00,47.5,37.8,29.81,WNW,296,4.0,4.0,69,0.00,,,0.04,Wunderground v.1.15,2013-04-01 02:20:00,
2013-03-31 22:25:00,47.4,38.1,29.81,NW,312,4.0,4.0,70,0.00,,,0.04,Wunderground v.1.15,2013-04-01 02:25:00,
2013-03-31 22:30:00,47.2,37.9,29.81,WNW,292,3.0,3.0,70,0.00,,,0.04,Wunderground v.1.15,2013-04-01 02:30:00,
2013-03-31 22:35:00,47.0,38.1,29.82,WNW,288,3.0,17.0,71,0.00,,,0.04,Wunderground v.1.15,2013-04-01 02:35:00,
2013-03-31 22:40:00,46.7,37.8,29.82,West,274,2.0,17.0,71,0.00,,,0.04,Wunderground v.1.15,2013-04-01 02:40:00,
2013-03-31 22:45:00,46.4,37.9,29.83,WNW,298,2.0,17.0,72,0.00,,,0.04,Wunderground v.1.15,2013-04-01 02:45:00,
2013-03-31 22:50:00,46.2,38.0,29.83,NW,322,3.0,17.0,73,0.00,,,0.04,Wunderground v.1.15,2013-04-01 02:50:00,
2013-03-31 23:00:00,46.3,37.0,29.83,West,263,9.0,17.0,70,0.00,,,0.04,Wunderground v.1.15,2013-04-01 03:00:00,
2013-03-31 23:05:00,46.0,36.8,29.83,WNW,293,8.0,17.0,70,0.00,,,0.04,Wunderground v.1.15,2013-04-01 03:05:00,
2013-03-31 23:10:00,45.8,35.8,29.83,NW,319,8.0,17.0,68,0.00,,,0.04,Wunderground v.1.15,2013-04-01 03:10:00,
2013-03-31 23:15:00,45.5,35.5,29.84,NW,306,10.0,17.0,68,0.00,,,0.04,Wunderground v.1.15,2013-04-01 03:15:00,
2013-03-31 23:20:00,45.2,35.6,29.84,WNW,293,11.0,11.0,69,0.00,,,0.04,Wunderground v.1.15,2013-04-01 03:20:00,
2013-03-31 23:25:00,44.9,35.3,29.84,NW,310,10.0,14.0,69,0.00,,,0.04,Wunderground v.1.15,2013-04-01 03:25:00,
2013-03-31 23:30:00,44.6,35.1,29.84,NW,313,10.0,17.0,69,0.00,,,0.04,Wunderground v.1.15,2013-04-01 03:30:00,
2013-03-31 23:40:00,44.0,35.2,29.85,North,355,10.0,17.0,71,0.00,,,0.04,Wunderground v.1.15,2013-04-01 03:40:00,
2013-03-31 23:45:00,43.7,34.9,29.85,West,277,10.0,17.0,71,0.00,,,0.04,Wunderground v.1.15,2013-04-01 03:45:00,
2013-03-31 23:50:00,43.4,34.3,29.86,NNW,329,10.0,10.0,70,0.00,,,0.04,Wunderground v.1.15,2013-04-01 03:50:00,